When you browse on this site, cookies collect data to enhance your experience and personalize the content and advertising you see.
Visit our Privacy Policy to learn more. By continuing to use the site, you agree to this use of cookies and data.
  • In Hungary
  • List of Countries
  • For 7 days
  • Water Temperature
  • Satellite Maps
  • Weather Map
  • News
  • Weather Widgets
  • user-avatar
    Login

    Hourly Weather Watford

    Today, 14 December, Friday

    Time Temperature Precipitation Wind Pressure Humidity
    00:00 -1°C° 0 mm 2 mps 757 mmHg 79%
    01:00 -1°C° 0 mm 2 mps 758 mmHg 79%
    02:00 +1°C° 0 mm 2 mps 758 mmHg 79%
    03:00 +1°C° 0 mm 2 mps 758 mmHg 78%
    04:00 +1°C° 0 mm 2 mps 758 mmHg 79%
    05:00 +1°C° 0 mm 2 mps 758 mmHg 79%
    06:00 +2°C° 0 mm 1 mps 758 mmHg 80%
    07:00 +1°C° 0 mm 2 mps 758 mmHg 80%
    08:00 +1°C° 0 mm 2 mps 758 mmHg 80%
    09:00 +1°C° 0 mm 2 mps 758 mmHg 79%
    10:00 +2°C° 0 mm 2 mps 759 mmHg 75%
    11:00 +3°C° 0 mm 2 mps 759 mmHg 71%
    12:00 +4°C° 0 mm 2 mps 759 mmHg 67%
    13:00 +4°C° 0 mm 2 mps 759 mmHg 69%
    14:00 +3°C° 0 mm 2 mps 759 mmHg 70%
    15:00 +3°C° 0 mm 2 mps 759 mmHg 71%
    16:00 +2°C° 0 mm 2 mps 759 mmHg 74%
    17:00 +2°C° 0 mm 2 mps 759 mmHg 76%
    18:00 +1°C° 0 mm 2 mps 759 mmHg 78%
    19:00 +1°C° 0 mm 2 mps 759 mmHg 77%
    20:00 +1°C° 0 mm 2 mps 759 mmHg 77%
    21:00 0°C° 0 mm 3 mps 759 mmHg 76%
    22:00 0°C° 0 mm 3 mps 759 mmHg 76%
    23:00 0°C° 0 mm 3 mps 759 mmHg 76%

    Tomorrow, 15 December, Saturday

    Time Temperature Precipitation Wind Pressure Humidity
    00:00 -1°C° 0 mm 4 mps 758 mmHg 76%
    01:00 -1°C° 0 mm 4 mps 758 mmHg 76%
    02:00 -1°C° 0 mm 4 mps 757 mmHg 75%
    03:00 -1°C° 0 mm 5 mps 757 mmHg 75%
    04:00 -1°C° 0 mm 5 mps 756 mmHg 74%
    05:00 -2°C° 0 mm 6 mps 756 mmHg 74%
    06:00 -1°C° 0 mm 6 mps 755 mmHg 73%
    07:00 -1°C° 0.1 mm 6 mps 755 mmHg 72%
    08:00 -1°C° 0.1 mm 7 mps 754 mmHg 71%
    09:00 -1°C° 0.1 mm 7 mps 753 mmHg 70%
    10:00 -1°C° 0 mm 8 mps 752 mmHg 70%
    11:00 0°C° 0 mm 8 mps 751 mmHg 70%
    12:00 0°C° 0 mm 8 mps 750 mmHg 71%
    13:00 0°C° 0.6 mm 9 mps 749 mmHg 74%
    14:00 0°C° 0.6 mm 9 mps 748 mmHg 78%
    15:00 0°C° 0.6 mm 9 mps 746 mmHg 81%
    16:00 +1°C° 1 mm 9 mps 745 mmHg 84%
    17:00 +1°C° 1 mm 10 mps 744 mmHg 87%
    18:00 +2°C° 1 mm 10 mps 742 mmHg 90%
    19:00 +3°C° 1.4 mm 10 mps 741 mmHg 89%
    20:00 +5°C° 1.4 mm 9 mps 740 mmHg 89%
    21:00 +6°C° 1.4 mm 9 mps 739 mmHg 88%
    22:00 +6°C° 0 mm 9 mps 739 mmHg 85%
    23:00 +6°C° 0 mm 10 mps 739 mmHg 82%

    Day after tomorrow, 16 December, Sunday

    Time Temperature Precipitation Wind Pressure Humidity
    00:00 +6°C° 0 mm 10 mps 739 mmHg 78%
    01:00 +6°C° 0 mm 9 mps 740 mmHg 77%
    02:00 +5°C° 0 mm 8 mps 741 mmHg 77%
    03:00 +4°C° 0 mm 7 mps 742 mmHg 76%
    04:00 +4°C° 0 mm 7 mps 743 mmHg 78%
    05:00 +4°C° 0 mm 6 mps 744 mmHg 80%
    06:00 +3°C° 0 mm 5 mps 745 mmHg 81%
    07:00 +3°C° 0 mm 5 mps 745 mmHg 83%
    08:00 +3°C° 0 mm 5 mps 746 mmHg 84%
    09:00 +4°C° 0 mm 4 mps 746 mmHg 85%
    10:00 +5°C° 0 mm 4 mps 746 mmHg 82%
    11:00 +6°C° 0 mm 4 mps 746 mmHg 78%
    12:00 +7°C° 0 mm 4 mps 747 mmHg 75%
    13:00 +6°C° 0 mm 4 mps 747 mmHg 77%
    14:00 +7°C° 0 mm 3 mps 747 mmHg 79%
    15:00 +7°C° 0 mm 3 mps 747 mmHg 81%
    16:00 +5°C° 0.1 mm 3 mps 747 mmHg 83%
    17:00 +5°C° 0.1 mm 3 mps 747 mmHg 86%
    18:00 +5°C° 0.1 mm 3 mps 748 mmHg 88%
    19:00 +5°C° 0.1 mm 3 mps 748 mmHg 89%
    20:00 +4°C° 0.1 mm 3 mps 748 mmHg 90%
    21:00 +4°C° 0.1 mm 3 mps 749 mmHg 91%
    22:00 +5°C° 0.1 mm 2 mps 749 mmHg 91%
    23:00 +5°C° 0.1 mm 2 mps 749 mmHg 92%

    17 December, Monday

    Time Temperature Precipitation Wind Pressure Humidity
    00:00 +4°C° 0.1 mm 2 mps 750 mmHg 92%
    01:00 +4°C° 0 mm 2 mps 750 mmHg 92%
    02:00 +4°C° 0 mm 2 mps 750 mmHg 91%
    03:00 +4°C° 0 mm 2 mps 751 mmHg 91%
    04:00 +4°C° 0 mm 2 mps 751 mmHg 91%
    05:00 +2°C° 0 mm 3 mps 751 mmHg 91%
    06:00 +2°C° 0 mm 3 mps 752 mmHg 90%
    07:00 +2°C° 0 mm 3 mps 752 mmHg 90%
    08:00 +2°C° 0 mm 3 mps 753 mmHg 90%
    09:00 +3°C° 0 mm 3 mps 754 mmHg 90%
    10:00 +4°C° 0 mm 3 mps 754 mmHg 86%
    11:00 +5°C° 0 mm 3 mps 754 mmHg 83%
    12:00 +6°C° 0 mm 4 mps 755 mmHg 79%
    13:00 +7°C° 0 mm 3 mps 755 mmHg 81%
    14:00 +7°C° 0 mm 3 mps 755 mmHg 82%
    15:00 +7°C° 0 mm 3 mps 755 mmHg 84%
    16:00 +6°C° 0 mm 4 mps 754 mmHg 86%
    17:00 +6°C° 0 mm 4 mps 754 mmHg 87%
    18:00 +6°C° 0 mm 5 mps 754 mmHg 89%
    19:00 +6°C° 0 mm 5 mps 754 mmHg 89%
    20:00 +7°C° 0 mm 6 mps 754 mmHg 89%
    21:00 +7°C° 0 mm 6 mps 754 mmHg 89%
    22:00 +7°C° 0 mm 6 mps 753 mmHg 88%
    23:00 +8°C° 0 mm 7 mps 753 mmHg 88%

    18 December, Tuesday

    Time Temperature Precipitation Wind Pressure Humidity
    00:00 +8°C° 0 mm 7 mps 753 mmHg 88%
    01:00 +8°C° 0.1 mm 7 mps 752 mmHg 87%
    02:00 +7°C° 0.1 mm 8 mps 751 mmHg 86%
    03:00 +9°C° 0.1 mm 8 mps 751 mmHg 85%
    04:00 +9°C° 0 mm 8 mps 750 mmHg 84%
    05:00 +7°C° 0 mm 8 mps 750 mmHg 83%
    06:00 +7°C° 0 mm 9 mps 749 mmHg 82%
    07:00 +7°C° 0 mm 9 mps 748 mmHg 79%
    08:00 +7°C° 0 mm 9 mps 748 mmHg 76%
    09:00 +6°C° 0 mm 9 mps 747 mmHg 74%
    10:00 +7°C° 0.2 mm 10 mps 746 mmHg 72%
    11:00 +7°C° 0.2 mm 11 mps 744 mmHg 71%
    12:00 +7°C° 0.2 mm 11 mps 743 mmHg 70%
    13:00 +7°C° 0.7 mm 11 mps 742 mmHg 73%
    14:00 +7°C° 0.7 mm 11 mps 742 mmHg 77%
    15:00 +7°C° 0.7 mm 11 mps 741 mmHg 80%
    16:00 +7°C° 0.4 mm 9 mps 741 mmHg 80%
    17:00 +7°C° 0.4 mm 8 mps 742 mmHg 80%
    18:00 +8°C° 0.4 mm 7 mps 742 mmHg 80%
    19:00 +7°C° 0 mm 6 mps 743 mmHg 80%
    20:00 +7°C° 0 mm 6 mps 743 mmHg 80%
    21:00 +5°C° 0 mm 6 mps 744 mmHg 80%
    22:00 +6°C° 0 mm 5 mps 744 mmHg 81%
    23:00 +6°C° 0 mm 5 mps 744 mmHg 81%

    19 December, Wednesday

    Time Temperature Precipitation Wind Pressure Humidity
    00:00 +6°C° 0 mm 5 mps 744 mmHg 82%
    01:00 +6°C° 0.1 mm 5 mps 745 mmHg 83%
    02:00 +6°C° 0.1 mm 5 mps 745 mmHg 84%
    03:00 +6°C° 0.1 mm 5 mps 745 mmHg 84%
    04:00 +5°C° 0 mm 4 mps 745 mmHg 83%
    05:00 +5°C° 0 mm 4 mps 745 mmHg 82%
    06:00 +5°C° 0 mm 4 mps 745 mmHg 80%
    07:00 +5°C° 0 mm 5 mps 745 mmHg 79%
    08:00 +5°C° 0 mm 5 mps 745 mmHg 79%
    09:00 +5°C° 0 mm 5 mps 745 mmHg 78%
    10:00 +5°C° 0 mm 6 mps 745 mmHg 75%
    11:00 +5°C° 0 mm 6 mps 745 mmHg 71%
    12:00 +6°C° 0 mm 7 mps 745 mmHg 68%
    13:00 +7°C° 0 mm 6 mps 745 mmHg 69%
    14:00 +7°C° 0 mm 6 mps 745 mmHg 71%
    15:00 +7°C° 0 mm 5 mps 744 mmHg 72%
    16:00 +6°C° 0 mm 5 mps 744 mmHg 73%
    17:00 +5°C° 0 mm 6 mps 744 mmHg 75%
    18:00 +5°C° 0 mm 6 mps 744 mmHg 76%
    19:00 +5°C° 0 mm 6 mps 743 mmHg 77%
    20:00 +5°C° 0 mm 6 mps 743 mmHg 77%
    21:00 +5°C° 0 mm 6 mps 743 mmHg 78%
    22:00 +5°C° 0.1 mm 6 mps 743 mmHg 79%
    23:00 +5°C° 0.1 mm 6 mps 742 mmHg 79%
    Show more